TimePST,TemperatureF,Dew PointF,Humidity,Sea Level PressureIn,VisibilityMPH,Wind Direction,Wind SpeedMPH,Gust SpeedMPH,PrecipitationIn,Events,Conditions,WindDirDegrees,DateUTC
12:55 AM,31.8,30.9,96,29.81,10.0,SE,3.5,-,N/A,,Clear,130,2011-11-21 08:55:00
1:55 AM,32.0,31.3,97,29.78,10.0,East,3.5,-,N/A,,Mostly Cloudy,100,2011-11-21 09:55:00
4:14 AM,32.0,32.0,100,29.71,10.0,Calm,Calm,-,N/A,Rain,Light Rain,0,2011-11-21 12:14:00
4:55 AM,33.4,32.7,97,29.68,6.0,SE,3.5,-,0.01,Rain,Light Rain,130,2011-11-21 12:55:00
5:50 AM,41.0,37.4,87,29.63,10.0,SSE,10.4,-,N/A,,Mostly Cloudy,150,2011-11-21 13:50:00
5:55 AM,40.8,38.1,90,29.63,10.0,SSE,12.7,-,0.02,,Mostly Cloudy,160,2011-11-21 13:55:00
6:06 AM,41.0,39.2,93,29.63,10.0,SSE,9.2,-,N/A,Rain,Light Rain,150,2011-11-21 14:06:00
6:52 AM,41.0,39.2,93,29.70,4.0,WSW,6.9,-,N/A,Rain,Rain,240,2011-11-21 14:52:00
6:55 AM,40.8,39.2,94,29.69,4.0,SW,5.8,-,0.06,Rain,Rain,230,2011-11-21 14:55:00
6:56 AM,41.0,39.2,93,29.69,5.0,SW,5.8,-,N/A,Rain,Rain,220,2011-11-21 14:56:00
6:58 AM,41.0,39.2,93,29.69,5.0,SW,8.1,-,N/A,Rain,Rain,220,2011-11-21 14:58:00
6:59 AM,41.0,39.2,93,29.69,5.0,SSW,8.1,-,N/A,Rain,Rain,210,2011-11-21 14:59:00
7:02 AM,41.0,39.2,93,29.70,5.0,SSW,9.2,-,N/A,Rain,Rain,210,2011-11-21 15:02:00
7:04 AM,41.0,39.2,93,29.70,5.0,SSW,10.4,-,N/A,Rain,Rain,200,2011-11-21 15:04:00
7:11 AM,41.0,39.2,93,29.69,5.0,South,15.0,-,N/A,,Overcast,180,2011-11-21 15:11:00
7:18 AM,41.0,41.0,100,29.69,6.0,South,17.3,-,N/A,,Overcast,190,2011-11-21 15:18:00
7:30 AM,41.0,41.0,100,29.70,6.0,South,19.6,-,N/A,,Overcast,190,2011-11-21 15:30:00
7:55 AM,41.7,40.3,95,29.71,10.0,South,16.1,24.2,0.11,Rain,Light Rain,180,2011-11-21 15:55:00
8:00 AM,41.0,41.0,100,29.71,10.0,South,17.3,25.3,N/A,,Mostly Cloudy,180,2011-11-21 16:00:00
8:41 AM,42.8,41.0,93,29.72,10.0,South,16.1,-,N/A,Rain,Light Rain,170,2011-11-21 16:41:00
8:52 AM,42.8,41.0,93,29.73,10.0,South,13.8,-,N/A,,Partly Cloudy,170,2011-11-21 16:52:00
8:55 AM,42.4,40.5,93,29.72,10.0,South,13.8,-,0.00,,Partly Cloudy,170,2011-11-21 16:55:00
9:55 AM,44.8,41.2,87,29.74,10.0,South,17.3,-,N/A,,Mostly Cloudy,170,2011-11-21 17:55:00
10:55 AM,46.4,41.0,81,29.76,10.0,South,15.0,20.7,N/A,Rain,Light Rain,190,2011-11-21 18:55:00
11:01 AM,46.4,41.0,81,29.77,10.0,South,12.7,-,N/A,Rain,Light Rain,190,2011-11-21 19:01:00
11:16 AM,46.4,42.8,87,29.77,10.0,South,11.5,-,N/A,,Overcast,190,2011-11-21 19:16:00
11:55 AM,46.9,42.4,84,29.78,10.0,South,10.4,-,0.01,,Overcast,180,2011-11-21 19:55:00
12:55 PM,48.9,42.6,79,29.76,10.0,SSE,10.4,-,N/A,,Overcast,160,2011-11-21 20:55:00
1:55 PM,48.7,43.0,80,29.75,10.0,South,11.5,-,N/A,,Mostly Cloudy,180,2011-11-21 21:55:00
1:58 PM,48.2,42.8,82,29.75,10.0,South,12.7,-,N/A,,Overcast,180,2011-11-21 21:58:00
2:55 PM,47.8,43.2,84,29.73,10.0,SSE,9.2,-,N/A,,Overcast,160,2011-11-21 22:55:00
3:19 PM,48.2,42.8,82,29.72,10.0,South,8.1,-,N/A,,Overcast,170,2011-11-21 23:19:00
3:24 PM,46.4,42.8,87,29.72,10.0,South,8.1,-,N/A,Rain,Light Rain,170,2011-11-21 23:24:00
3:34 PM,46.4,42.8,87,29.70,9.0,SSE,8.1,-,N/A,Rain,Light Rain,160,2011-11-21 23:34:00
3:38 PM,46.4,42.8,87,29.70,9.0,SSE,8.1,-,N/A,Rain,Light Rain,160,2011-11-21 23:38:00
3:40 PM,46.4,42.8,87,29.70,9.0,SSE,8.1,-,N/A,Rain,Light Rain,160,2011-11-21 23:40:00
3:47 PM,46.4,42.8,87,29.71,10.0,South,6.9,-,N/A,,Overcast,170,2011-11-21 23:47:00
3:53 PM,46.4,42.8,87,29.71,10.0,South,6.9,-,N/A,Rain,Light Rain,180,2011-11-21 23:53:00
3:55 PM,46.4,43.7,90,29.71,10.0,South,5.8,-,0.01,Rain,Light Rain,180,2011-11-21 23:55:00
4:07 PM,46.4,42.8,87,29.70,10.0,South,5.8,-,N/A,,Mostly Cloudy,170,2011-11-22 00:07:00
4:14 PM,44.6,42.8,93,29.70,10.0,South,5.8,-,N/A,,Mostly Cloudy,170,2011-11-22 00:14:00
4:55 PM,46.6,43.2,88,29.68,10.0,South,5.8,-,0.00,,Overcast,170,2011-11-22 00:55:00
5:03 PM,46.4,42.8,87,29.68,10.0,South,8.1,-,N/A,Rain,Light Rain,170,2011-11-22 01:03:00
5:15 PM,46.4,42.8,87,29.68,10.0,South,9.2,-,N/A,,Mostly Cloudy,170,2011-11-22 01:15:00
5:46 PM,48.2,42.8,82,29.67,10.0,SSE,15.0,-,N/A,Rain,Light Rain,160,2011-11-22 01:46:00
5:55 PM,47.3,43.5,87,29.67,10.0,SSE,13.8,-,0.00,,Scattered Clouds,160,2011-11-22 01:55:00
6:02 PM,46.4,42.8,87,29.67,10.0,SSE,12.7,-,N/A,Rain,Light Rain,160,2011-11-22 02:02:00
6:34 PM,46.4,44.6,93,29.67,10.0,South,12.7,-,N/A,,Overcast,170,2011-11-22 02:34:00
6:55 PM,46.6,43.9,90,29.66,10.0,SSE,10.4,-,0.01,Rain,Light Rain,150,2011-11-22 02:55:00
6:57 PM,46.4,44.6,93,29.65,10.0,SSE,12.7,-,N/A,,Mostly Cloudy,150,2011-11-22 02:57:00
7:55 PM,46.0,42.4,87,29.63,10.0,SSE,10.4,-,0.00,,Mostly Cloudy,150,2011-11-22 03:55:00
8:07 PM,46.4,42.8,87,29.63,10.0,SSE,9.2,-,N/A,Rain,Light Rain,150,2011-11-22 04:07:00
8:16 PM,46.4,42.8,87,29.62,10.0,SSE,15.0,-,N/A,,Overcast,150,2011-11-22 04:16:00
8:55 PM,47.1,41.5,81,29.61,10.0,SSE,16.1,-,0.00,,Mostly Cloudy,160,2011-11-22 04:55:00
9:42 PM,46.4,41.0,81,29.60,10.0,SSE,16.1,21.9,N/A,Rain,Light Rain,160,2011-11-22 05:42:00
9:54 PM,46.4,41.0,81,29.59,10.0,SSE,11.5,23.0,N/A,,Scattered Clouds,160,2011-11-22 05:54:00
9:55 PM,46.9,41.2,80,29.59,10.0,SSE,13.8,23.0,0.00,,Scattered Clouds,160,2011-11-22 05:55:00
10:43 PM,46.4,41.0,81,29.59,10.0,SSE,11.5,-,N/A,Rain,Light Rain,160,2011-11-22 06:43:00
10:55 PM,47.1,42.1,83,29.58,10.0,SSE,12.7,-,0.00,Rain,Light Rain,160,2011-11-22 06:55:00
11:30 PM,46.4,42.8,87,29.57,10.0,SSE,10.4,-,N/A,,Overcast,160,2011-11-22 07:30:00
11:55 PM,47.7,42.6,83,29.56,10.0,SSE,10.4,-,0.01,,Overcast,160,2011-11-22 07:55:00